Regional Weather Roundup
Issued by NWS Green Bay, WI

Home | Current Version | Previous Version | Text Only | Print | Product List | Glossary On
Versions: 1 2 3 4 5 6 7 8 9 10 11 12 13 14 15 16 17 18 19 20 21 22 23 24 25 26 27 28 29 30 31 32 33 34 35 36 37 38 39 40 41 42 43 44 45 46 47 48 49 50
000
ASUS43 KGRB 160800
RWRGRB

NORTH-CENTRAL AND NORTHEAST WISCONSIN REGIONAL WEATHER ROUNDUP
NATIONAL WEATHER SERVICE GREEN BAY WI
200 AM CST TUE JAN 16 2018

WIZ005-009-010>012-018-019-160900-
NORTH CENTRAL WISCONSIN

CITY           SKY/WX    TMP DP  RH WIND       PRES   REMARKS
IRONWOOD       LGT SNOW   6   4  91 CALM      30.46R FOG
MANITOWISH WTR NOT AVBL
ARBOR VITAE    NOT AVBL
EAGLE RIVER    FAIR       3  -1  85 CALM      30.39R
LAND O LAKES   NOT AVBL
RHINELANDER    FAIR       8   6  92 N5        30.39R WCI   0
PHILLIPS       FAIR       4   3  94 CALM      30.42R
ANTIGO         NOT AVBL
TOMAHAWK       NOT AVBL
MERRILL        FLURRIES   9   6  89 N6        30.41R WCI  -1
$$

WIZ013-073-160900-
NORTHEAST WISCONSIN

CITY           SKY/WX    TMP DP  RH WIND       PRES   REMARKS
IRON MOUNTAIN  CLOUDY     1  -5  75 NW3       30.40R
MARINETTE      FAIR      13   9  84 N10       30.41R WCI   0
$$

WIZ017-030-035>037-045-160900-
CENTRAL WISCONSIN

CITY           SKY/WX    TMP DP  RH WIND       PRES   REMARKS
MEDFORD        NOT AVBL
WAUSAU         MOCLDY     9   6  88 VRB3      30.40R
MOSINEE        NOT AVBL
MARSHFIELD     FAIR      13   9  84 N8        30.40R WCI   2
WISC RAPIDS    CLOUDY    10   6  84 N7        30.42R WCI  -1
STEVENS POINT  NOT AVBL
WAUPACA        NOT AVBL
SHAWANO        CLOUDY    17  13  84 N8        30.40R WCI   6
CLINTONVILLE   NOT AVBL
WAUTOMA        FLURRIES  13  10  88 N7        30.41R WCI   3
$$

WIZ038-039-048-051-160900-
FOX VALLEY

CITY           SKY/WX    TMP DP  RH WIND       PRES   REMARKS
NWS GREEN BAY  CLOUDY    17  12  80 N12       30.38R WCI   4
APPLETON       NOT AVBL
OSHKOSH        CLOUDY    14  11  87 N9        30.37R WCI   2
FOND DU LAC    CLOUDY    17  11  77 N13       30.36R WCI   4
$$

WIZ022-050-052-160900-
EAST CENTRAL WISCONSIN

CITY           SKY/WX    TMP DP  RH WIND       PRES   REMARKS
EPHRAIM        NOT AVBL
WASHINGTON ISL NOT AVBL
STURGEON BAY   FLURRIES  13  10  88 N12       30.37R WCI  -1
MANITOWOC      LGT SNOW  17  14  88 NW9       30.36R FOG     WCI   6
SHEBOYGAN      LGT SNOW  18  15  88 N10       30.34R FOG     WCI   6
$$

LMZ563-521-522-541>543-160900-
LAKESHORE

STATION/POSITION TIME  TEMP    WIND        PRES    VSBY  WAVE
                       AIR SEA DIR/SP/G                  HT/PER
                 (UTC) (F)     (DEG/KT/KT) (MB)    (MI)  (FT/S)
SHEBOYGAN LKSHOR 0700   20     330/ 13/ 15 1027.8R
KEWAUNEE LKSHORE 0730   18     310/  4/  7 1026.7R
NORTHPORT PIER   0740   21      CALM  /  1 1028.8R
MENOMINEE LKSHOR 0730   13     360/ 16/ 18 1028.5R
$$




USA.gov is the U.S. government's official web portal to all federal, state and local government web resources and services.